GFSFLT2_prec_precacc6_009.txt.gz
Total_Precipitation_Accumulation
0.00 0.00 0.00 0.00 0.00 0.00 0.01 0.01 0.00 0.00 0.01 0.02 0.04 0.07 0.13 0.17 0.20 0.24 0.27 0.25 0.22 0.20 0.19 0.19 0.17 0.14 0.12
0.00 0.00 0.00 0.00 0.00 0.00 0.01 0.02 0.02 0.01 0.02 0.02 0.03 0.03 0.04 0.06 0.11 0.15 0.18 0.24 0.31 0.36 0.37 0.31 0.22 0.21 0.20
0.00 0.00 0.00 0.00 0.01 0.01 0.01 0.02 0.02 0.03 0.04 0.03 0.02 0.01 0.01 0.03 0.07 0.13 0.17 0.18 0.21 0.24 0.29 0.39 0.47 0.48 0.32
0.01 0.01 0.00 0.00 0.00 0.01 0.01 0.02 0.03 0.01 0.01 0.01 0.01 0.01 0.00 0.01 0.04 0.03 0.04 0.06 0.12 0.22 0.28 0.39 0.45 0.48 0.47
0.01 0.01 0.01 0.00 0.00 0.00 0.01 0.02 0.02 0.01 0.00 0.00 0.01 0.01 0.01 0.01 0.00 0.02 0.07 0.07 0.11 0.22 0.36 0.51 0.65 0.74 0.80
0.02 0.01 0.00 0.00 0.01 0.04 0.08 0.08 0.03 0.00 0.02 0.01 0.01 0.00 0.00 0.00 0.00 0.02 0.06 0.10 0.13 0.18 0.28 0.35 0.40 0.48 0.56
0.02 0.02 0.04 0.06 0.14 0.19 0.09 0.04 0.02 0.00 0.02 0.02 0.01 0.01 0.00 0.00 0.01 0.02 0.05 0.09 0.16 0.24 0.27 0.32 0.40 0.41 0.42
0.02 0.06 0.14 0.15 0.12 0.06 0.02 0.03 0.03 0.01 0.04 0.06 0.02 0.02 0.01 0.00 0.04 0.04 0.07 0.11 0.17 0.23 0.26 0.25 0.30 0.45 0.49
0.05 0.06 0.03 0.01 0.01 0.08 0.12 0.11 0.08 0.02 0.01 0.03 0.01 0.01 0.00 0.01 0.07 0.12 0.11 0.13 0.16 0.17 0.20 0.26 0.33 0.34 0.42
0.01 0.00 0.00 0.00 0.02 0.09 0.22 0.25 0.12 0.07 0.01 0.03 0.02 0.02 0.02 0.03 0.11 0.17 0.17 0.22 0.24 0.26 0.25 0.25 0.27 0.28 0.27
0.00 0.00 0.00 0.00 0.02 0.05 0.12 0.24 0.20 0.10 0.01 0.10 0.09 0.05 0.07 0.09 0.16 0.22 0.20 0.25 0.25 0.29 0.30 0.27 0.22 0.18 0.21
0.01 0.01 0.01 0.00 0.01 0.02 0.04 0.07 0.11 0.13 0.04 0.07 0.14 0.06 0.10 0.16 0.20 0.28 0.32 0.27 0.24 0.23 0.20 0.22 0.21 0.17 0.16
0.02 0.01 0.01 0.01 0.00 0.01 0.02 0.02 0.03 0.06 0.06 0.07 0.12 0.16 0.21 0.21 0.19 0.26 0.31 0.33 0.29 0.22 0.20 0.16 0.12 0.08 0.08
0.04 0.01 0.01 0.01 0.01 0.03 0.05 0.04 0.07 0.09 0.09 0.13 0.16 0.19 0.18 0.20 0.21 0.24 0.25 0.24 0.25 0.21 0.16 0.13 0.09 0.06 0.03
0.02 0.03 0.02 0.02 0.01 0.04 0.09 0.12 0.14 0.14 0.12 0.13 0.13 0.13 0.16 0.17 0.22 0.23 0.20 0.17 0.18 0.14 0.09 0.08 0.08 0.04 0.01
0.04 0.04 0.05 0.04 0.04 0.07 0.13 0.16 0.17 0.17 0.16 0.17 0.13 0.10 0.12 0.13 0.16 0.17 0.14 0.12 0.13 0.09 0.05 0.04 0.05 0.03 0.01
0.08 0.08 0.08 0.06 0.08 0.10 0.15 0.18 0.19 0.19 0.16 0.10 0.08 0.07 0.07 0.06 0.05 0.04 0.03 0.04 0.03 0.02 0.01 0.00 0.01 0.00 0.00

GFSFLT2_prec_precacc6_012.txt.gz
Total_Precipitation_Accumulation
0.00 0.00 0.00 0.00 0.00 0.00 0.00 0.00 0.00 0.00 0.00 0.00 0.00 0.01 0.02 0.02 0.02 0.07 0.15 0.19 0.19 0.17 0.17 0.19 0.22 0.28 0.42
0.00 0.00 0.00 0.00 0.00 0.00 0.00 0.00 0.00 0.00 0.00 0.00 0.01 0.02 0.01 0.01 0.01 0.01 0.02 0.08 0.21 0.32 0.35 0.32 0.26 0.29 0.38
0.01 0.00 0.00 0.00 0.00 0.00 0.00 0.00 0.00 0.00 0.00 0.00 0.01 0.01 0.01 0.00 0.00 0.00 0.00 0.01 0.03 0.10 0.18 0.30 0.41 0.42 0.33
0.03 0.01 0.01 0.00 0.01 0.00 0.00 0.00 0.00 0.00 0.01 0.01 0.00 0.01 0.00 0.00 0.01 0.01 0.01 0.01 0.01 0.01 0.03 0.09 0.19 0.29 0.35
0.03 0.02 0.01 0.00 0.00 0.00 0.01 0.02 0.01 0.01 0.02 0.01 0.01 0.01 0.01 0.01 0.00 0.00 0.00 0.01 0.01 0.00 0.01 0.03 0.07 0.21 0.45
0.03 0.02 0.01 0.01 0.00 0.03 0.07 0.10 0.07 0.01 0.01 0.01 0.01 0.01 0.00 0.00 0.00 0.00 0.00 0.00 0.00 0.00 0.00 0.01 0.06 0.15 0.26
0.02 0.03 0.04 0.03 0.10 0.19 0.12 0.06 0.02 0.00 0.02 0.02 0.01 0.01 0.00 0.00 0.00 0.00 0.00 0.00 0.00 0.00 0.00 0.02 0.08 0.16 0.21
0.02 0.04 0.08 0.13 0.13 0.06 0.04 0.03 0.02 0.02 0.03 0.09 0.02 0.01 0.01 0.01 0.02 0.02 0.02 0.01 0.00 0.01 0.03 0.04 0.07 0.22 0.30
0.01 0.01 0.01 0.00 0.01 0.06 0.09 0.10 0.06 0.01 0.01 0.06 0.03 0.03 0.01 0.00 0.00 0.00 0.00 0.00 0.01 0.02 0.04 0.08 0.15 0.19 0.31
0.00 0.00 0.00 0.00 0.00 0.03 0.15 0.23 0.12 0.07 0.01 0.10 0.03 0.04 0.05 0.00 0.00 0.01 0.02 0.05 0.05 0.08 0.08 0.11 0.14 0.17 0.21
0.00 0.00 0.00 0.00 0.01 0.03 0.10 0.22 0.21 0.10 0.01 0.14 0.09 0.02 0.05 0.01 0.01 0.03 0.07 0.09 0.09 0.14 0.21 0.21 0.18 0.16 0.19
0.01 0.01 0.01 0.01 0.01 0.02 0.03 0.06 0.10 0.12 0.05 0.07 0.12 0.02 0.05 0.04 0.04 0.07 0.14 0.16 0.11 0.13 0.14 0.21 0.26 0.23 0.26
0.02 0.01 0.01 0.01 0.01 0.01 0.01 0.01 0.02 0.03 0.05 0.05 0.06 0.05 0.08 0.06 0.05 0.08 0.21 0.31 0.24 0.17 0.20 0.17 0.15 0.16 0.21
0.04 0.02 0.01 0.01 0.01 0.01 0.03 0.02 0.04 0.04 0.06 0.05 0.06 0.09 0.08 0.08 0.09 0.11 0.17 0.26 0.29 0.25 0.19 0.21 0.19 0.16 0.11
0.03 0.02 0.02 0.01 0.01 0.01 0.05 0.07 0.10 0.10 0.10 0.08 0.07 0.11 0.14 0.13 0.13 0.15 0.16 0.24 0.28 0.22 0.13 0.14 0.14 0.08 0.05
0.04 0.03 0.05 0.05 0.05 0.05 0.09 0.12 0.13 0.13 0.12 0.10 0.10 0.11 0.12 0.14 0.18 0.18 0.20 0.22 0.25 0.20 0.11 0.07 0.11 0.09 0.05
0.06 0.07 0.07 0.07 0.08 0.11 0.12 0.12 0.12 0.12 0.10 0.06 0.05 0.08 0.12 0.11 0.13 0.13 0.12 0.15 0.13 0.11 0.09 0.05 0.05 0.07 0.03

GFSFLT2_prec_precacc6_015.txt.gz
Total_Precipitation_Accumulation
0.00 0.00 0.00 0.00 0.00 0.00 0.00 0.00 0.00 0.00 0.00 0.00 0.00 0.00 0.00 0.00 0.00 0.00 0.01 0.02 0.03 0.04 0.05 0.10 0.18 0.26 0.42
0.00 0.00 0.00 0.00 0.00 0.00 0.00 0.00 0.00 0.00 0.00 0.00 0.00 0.00 0.00 0.00 0.00 0.00 0.01 0.01 0.02 0.03 0.04 0.08 0.13 0.19 0.29
0.01 0.00 0.00 0.00 0.00 0.00 0.00 0.00 0.00 0.00 0.00 0.00 0.00 0.01 0.01 0.00 0.00 0.00 0.00 0.00 0.00 0.01 0.01 0.02 0.04 0.10 0.14
0.02 0.02 0.01 0.00 0.00 0.00 0.00 0.00 0.00 0.00 0.00 0.01 0.01 0.01 0.02 0.01 0.01 0.01 0.00 0.01 0.01 0.01 0.01 0.01 0.01 0.02 0.06
0.05 0.03 0.01 0.00 0.00 0.00 0.01 0.01 0.00 0.01 0.02 0.01 0.01 0.01 0.01 0.00 0.00 0.00 0.00 0.00 0.01 0.01 0.01 0.01 0.01 0.00 0.00
0.06 0.03 0.01 0.01 0.00 0.01 0.03 0.05 0.05 0.01 0.02 0.01 0.00 0.00 0.00 0.00 0.00 0.00 0.00 0.00 0.01 0.01 0.01 0.01 0.00 0.00 0.00
0.02 0.02 0.01 0.01 0.03 0.05 0.06 0.05 0.02 0.00 0.02 0.02 0.01 0.01 0.01 0.00 0.01 0.00 0.01 0.01 0.01 0.01 0.01 0.01 0.00 0.00 0.00
0.00 0.01 0.02 0.03 0.04 0.03 0.04 0.04 0.03 0.02 0.03 0.09 0.03 0.01 0.00 0.00 0.01 0.02 0.04 0.05 0.05 0.03 0.02 0.01 0.00 0.00 0.00
0.00 0.01 0.00 0.00 0.01 0.05 0.08 0.07 0.05 0.02 0.02 0.10 0.05 0.04 0.01 0.00 0.00 0.04 0.05 0.02 0.00 0.00 0.00 0.00 0.01 0.00 0.01
0.00 0.00 0.00 0.00 0.00 0.02 0.07 0.17 0.08 0.05 0.01 0.15 0.06 0.06 0.10 0.01 0.01 0.01 0.02 0.03 0.02 0.02 0.01 0.01 0.01 0.00 0.00
0.00 0.00 0.00 0.00 0.01 0.01 0.02 0.12 0.16 0.09 0.01 0.15 0.13 0.04 0.08 0.03 0.01 0.01 0.04 0.11 0.11 0.10 0.07 0.06 0.05 0.03 0.02
0.01 0.01 0.01 0.01 0.01 0.01 0.00 0.02 0.05 0.09 0.03 0.07 0.15 0.05 0.06 0.03 0.01 0.01 0.07 0.22 0.17 0.09 0.04 0.08 0.17 0.17 0.18
0.02 0.01 0.01 0.01 0.01 0.00 0.01 0.00 0.01 0.01 0.03 0.07 0.10 0.05 0.06 0.04 0.02 0.02 0.13 0.27 0.26 0.13 0.13 0.10 0.11 0.13 0.18
0.03 0.02 0.01 0.01 0.01 0.02 0.05 0.03 0.05 0.04 0.07 0.07 0.06 0.07 0.06 0.05 0.06 0.06 0.12 0.24 0.31 0.25 0.19 0.23 0.26 0.24 0.13
0.04 0.03 0.02 0.02 0.02 0.03 0.08 0.10 0.15 0.13 0.11 0.10 0.08 0.08 0.13 0.10 0.09 0.09 0.09 0.21 0.32 0.29 0.16 0.18 0.25 0.29 0.23
0.04 0.05 0.07 0.08 0.08 0.07 0.13 0.16 0.13 0.11 0.11 0.10 0.09 0.09 0.11 0.12 0.11 0.12 0.14 0.21 0.28 0.22 0.13 0.08 0.18 0.22 0.16
0.08 0.09 0.09 0.09 0.10 0.14 0.15 0.13 0.11 0.08 0.06 0.05 0.05 0.10 0.14 0.12 0.15 0.17 0.16 0.23 0.19 0.15 0.11 0.07 0.10 0.16 0.11

GFSFLT2_prec_precacc6_018.txt.gz
Total_Precipitation_Accumulation
0.00 0.00 0.00 0.00 0.00 0.00 0.00 0.00 0.00 0.00 0.00 0.00 0.00 0.00 0.00 0.00 0.00 0.00 0.00 0.00 0.01 0.02 0.02 0.04 0.08 0.09 0.09
0.00 0.00 0.00 0.00 0.00 0.00 0.00 0.00 0.00 0.00 0.00 0.00 0.00 0.00 0.00 0.00 0.00 0.01 0.01 0.01 0.01 0.02 0.03 0.03 0.04 0.06 0.08
0.00 0.00 0.00 0.00 0.00 0.00 0.00 0.00 0.00 0.00 0.00 0.00 0.00 0.00 0.00 0.00 0.01 0.01 0.02 0.03 0.03 0.02 0.02 0.02 0.01 0.01 0.02
0.02 0.01 0.01 0.00 0.00 0.00 0.00 0.00 0.00 0.00 0.00 0.00 0.00 0.01 0.02 0.02 0.02 0.02 0.01 0.00 0.00 0.01 0.01 0.01 0.01 0.01 0.01
0.05 0.05 0.04 0.01 0.00 0.00 0.00 0.00 0.00 0.00 0.00 0.00 0.00 0.01 0.00 0.00 0.00 0.00 0.00 0.00 0.01 0.02 0.02 0.02 0.02 0.01 0.01
0.11 0.06 0.01 0.00 0.00 0.00 0.01 0.02 0.02 0.00 0.01 0.00 0.00 0.00 0.00 0.00 0.01 0.02 0.02 0.01 0.01 0.01 0.01 0.01 0.01 0.01 0.00
0.02 0.01 0.01 0.01 0.02 0.04 0.04 0.03 0.01 0.00 0.01 0.01 0.01 0.01 0.01 0.01 0.01 0.01 0.01 0.01 0.01 0.02 0.02 0.01 0.01 0.01 0.00
0.00 0.01 0.02 0.01 0.02 0.02 0.01 0.02 0.02 0.01 0.02 0.06 0.02 0.01 0.00 0.00 0.00 0.01 0.02 0.07 0.10 0.07 0.05 0.04 0.02 0.01 0.01
0.01 0.00 0.00 0.00 0.00 0.01 0.05 0.05 0.04 0.01 0.01 0.06 0.03 0.01 0.00 0.00 0.00 0.05 0.11 0.08 0.03 0.01 0.00 0.00 0.00 0.00 0.00
0.00 0.00 0.00 0.00 0.00 0.01 0.03 0.12 0.06 0.04 0.00 0.08 0.05 0.03 0.09 0.01 0.01 0.01 0.02 0.02 0.03 0.02 0.00 0.01 0.01 0.00 0.00
0.00 0.00 0.00 0.00 0.01 0.01 0.01 0.07 0.13 0.09 0.00 0.08 0.13 0.04 0.08 0.03 0.01 0.01 0.00 0.10 0.17 0.18 0.13 0.03 0.02 0.01 0.00
0.00 0.01 0.01 0.01 0.00 0.00 0.00 0.00 0.02 0.07 0.02 0.04 0.17 0.07 0.10 0.05 0.01 0.00 0.01 0.17 0.29 0.37 0.21 0.09 0.09 0.10 0.09
0.03 0.01 0.01 0.00 0.00 0.01 0.01 0.00 0.00 0.00 0.01 0.06 0.16 0.10 0.06 0.03 0.01 0.00 0.05 0.15 0.32 0.31 0.12 0.11 0.08 0.04 0.06
0.04 0.02 0.01 0.01 0.01 0.03 0.07 0.03 0.07 0.04 0.06 0.07 0.05 0.04 0.03 0.01 0.03 0.03 0.06 0.12 0.23 0.23 0.20 0.22 0.28 0.17 0.06
0.04 0.04 0.02 0.02 0.02 0.03 0.08 0.11 0.16 0.11 0.06 0.05 0.05 0.03 0.06 0.09 0.06 0.06 0.05 0.12 0.26 0.34 0.25 0.25 0.38 0.45 0.31
0.04 0.05 0.07 0.07 0.07 0.05 0.10 0.13 0.11 0.08 0.07 0.07 0.05 0.03 0.06 0.09 0.07 0.08 0.09 0.17 0.22 0.23 0.23 0.15 0.30 0.49 0.41
0.07 0.08 0.08 0.06 0.07 0.09 0.09 0.07 0.05 0.03 0.02 0.04 0.07 0.09 0.09 0.07 0.08 0.14 0.13 0.19 0.16 0.11 0.11 0.11 0.16 0.32 0.31

GFSFLT2_prec_precacc6_021.txt.gz
Total_Precipitation_Accumulation
0.00 0.00 0.00 0.00 0.00 0.00 0.00 0.00 0.00 0.00 0.00 0.00 0.00 0.00 0.00 0.00 0.01 0.01 0.01 0.02 0.02 0.02 0.03 0.03 0.04 0.05 0.05
0.00 0.00 0.00 0.00 0.00 0.00 0.00 0.00 0.00 0.00 0.00 0.00 0.00 0.00 0.00 0.00 0.00 0.00 0.00 0.01 0.01 0.03 0.05 0.06 0.05 0.05 0.06
0.01 0.00 0.00 0.00 0.00 0.00 0.00 0.00 0.00 0.00 0.00 0.00 0.00 0.00 0.00 0.00 0.01 0.01 0.02 0.03 0.05 0.05 0.05 0.05 0.04 0.03 0.02
0.05 0.03 0.01 0.01 0.02 0.01 0.00 0.00 0.00 0.00 0.00 0.00 0.00 0.00 0.00 0.01 0.01 0.01 0.01 0.00 0.00 0.01 0.01 0.02 0.02 0.02 0.02
0.07 0.06 0.05 0.01 0.00 0.00 0.00 0.00 0.00 0.00 0.00 0.00 0.00 0.00 0.00 0.00 0.00 0.00 0.00 0.02 0.04 0.05 0.05 0.04 0.03 0.03 0.02
0.09 0.05 0.01 0.00 0.01 0.01 0.01 0.02 0.03 0.00 0.00 0.00 0.00 0.00 0.00 0.00 0.01 0.02 0.03 0.03 0.03 0.03 0.02 0.02 0.01 0.01 0.01
0.01 0.01 0.01 0.02 0.04 0.05 0.04 0.04 0.02 0.00 0.01 0.01 0.00 0.01 0.01 0.01 0.01 0.01 0.01 0.01 0.01 0.02 0.02 0.01 0.01 0.01 0.01
0.00 0.01 0.02 0.01 0.01 0.02 0.01 0.01 0.01 0.00 0.01 0.02 0.00 0.01 0.00 0.00 0.00 0.01 0.01 0.05 0.09 0.11 0.10 0.07 0.04 0.03 0.03
0.03 0.01 0.00 0.00 0.00 0.01 0.05 0.05 0.03 0.00 0.00 0.01 0.00 0.00 0.00 0.00 0.00 0.01 0.07 0.08 0.05 0.02 0.01 0.01 0.01 0.01 0.01
0.00 0.00 0.00 0.00 0.00 0.01 0.03 0.12 0.06 0.04 0.00 0.02 0.03 0.02 0.07 0.01 0.00 0.00 0.00 0.01 0.02 0.02 0.01 0.01 0.02 0.01 0.00
0.00 0.00 0.00 0.00 0.00 0.00 0.01 0.10 0.16 0.11 0.01 0.07 0.13 0.03 0.07 0.03 0.00 0.00 0.01 0.03 0.12 0.18 0.16 0.04 0.01 0.01 0.00
0.00 0.00 0.00 0.00 0.00 0.00 0.00 0.01 0.04 0.12 0.05 0.07 0.17 0.07 0.12 0.06 0.01 0.00 0.00 0.08 0.31 0.56 0.65 0.18 0.04 0.03 0.03
0.03 0.01 0.01 0.01 0.01 0.02 0.01 0.01 0.01 0.01 0.04 0.07 0.14 0.11 0.06 0.03 0.01 0.00 0.04 0.05 0.23 0.37 0.31 0.31 0.07 0.01 0.02
0.04 0.02 0.01 0.02 0.02 0.04 0.07 0.03 0.05 0.02 0.02 0.04 0.06 0.04 0.02 0.00 0.03 0.03 0.09 0.11 0.12 0.15 0.14 0.24 0.28 0.09 0.03
0.04 0.04 0.02 0.02 0.02 0.02 0.05 0.07 0.09 0.06 0.03 0.01 0.01 0.01 0.01 0.05 0.04 0.05 0.07 0.10 0.16 0.26 0.24 0.27 0.36 0.35 0.18
0.03 0.04 0.05 0.05 0.04 0.02 0.03 0.06 0.07 0.05 0.05 0.05 0.02 0.01 0.02 0.04 0.07 0.10 0.11 0.16 0.21 0.23 0.26 0.17 0.37 0.56 0.40
0.05 0.05 0.04 0.03 0.03 0.03 0.03 0.03 0.02 0.03 0.03 0.04 0.06 0.05 0.04 0.04 0.05 0.15 0.13 0.17 0.19 0.16 0.18 0.17 0.28 0.43 0.37

GFSFLT2_prec_precacc6_024.txt.gz
Total_Precipitation_Accumulation
0.00 0.00 0.00 0.00 0.00 0.00 0.00 0.00 0.00 0.00 0.01 0.01 0.01 0.01 0.00 0.00 0.01 0.01 0.01 0.03 0.03 0.03 0.04 0.05 0.05 0.05 0.05
0.00 0.00 0.00 0.00 0.00 0.00 0.00 0.00 0.01 0.00 0.00 0.00 0.00 0.00 0.00 0.00 0.00 0.01 0.01 0.02 0.02 0.02 0.03 0.05 0.05 0.06 0.07
0.01 0.00 0.00 0.00 0.01 0.00 0.00 0.00 0.00 0.00 0.00 0.00 0.00 0.00 0.00 0.01 0.02 0.02 0.01 0.01 0.02 0.04 0.04 0.05 0.05 0.05 0.05
0.06 0.04 0.02 0.02 0.01 0.01 0.00 0.00 0.00 0.00 0.00 0.00 0.00 0.00 0.00 0.00 0.00 0.00 0.00 0.00 0.00 0.01 0.02 0.02 0.02 0.03 0.03
0.07 0.08 0.04 0.00 0.00 0.00 0.01 0.01 0.01 0.00 0.00 0.00 0.00 0.00 0.00 0.00 0.00 0.00 0.00 0.02 0.05 0.07 0.08 0.07 0.06 0.05 0.04
0.12 0.02 0.00 0.00 0.00 0.02 0.06 0.06 0.02 0.00 0.00 0.00 0.00 0.00 0.00 0.00 0.00 0.01 0.02 0.03 0.03 0.03 0.03 0.04 0.04 0.04 0.03
0.00 0.00 0.01 0.02 0.09 0.09 0.03 0.03 0.02 0.00 0.00 0.00 0.00 0.00 0.00 0.00 0.00 0.00 0.01 0.01 0.01 0.02 0.02 0.03 0.02 0.02 0.02
0.00 0.01 0.03 0.04 0.02 0.00 0.01 0.02 0.01 0.00 0.00 0.01 0.00 0.00 0.00 0.00 0.00 0.00 0.00 0.02 0.06 0.09 0.10 0.08 0.06 0.03 0.03
0.03 0.02 0.00 0.00 0.00 0.04 0.07 0.05 0.03 0.00 0.00 0.01 0.01 0.00 0.00 0.00 0.00 0.00 0.01 0.03 0.03 0.03 0.03 0.04 0.05 0.04 0.03
0.00 0.00 0.00 0.00 0.00 0.01 0.06 0.14 0.06 0.04 0.00 0.06 0.03 0.01 0.07 0.01 0.00 0.00 0.00 0.00 0.01 0.02 0.03 0.03 0.02 0.01 0.00
0.00 0.00 0.00 0.00 0.00 0.00 0.03 0.15 0.19 0.12 0.01 0.12 0.13 0.02 0.06 0.02 0.00 0.00 0.00 0.00 0.06 0.13 0.16 0.11 0.05 0.03 0.01
0.00 0.00 0.00 0.01 0.01 0.01 0.01 0.04 0.08 0.16 0.07 0.10 0.18 0.08 0.10 0.04 0.00 0.00 0.00 0.06 0.31 0.44 0.69 0.30 0.11 0.03 0.02
0.01 0.00 0.01 0.01 0.02 0.02 0.01 0.01 0.02 0.02 0.05 0.07 0.11 0.08 0.06 0.04 0.01 0.01 0.04 0.04 0.15 0.30 0.48 0.49 0.20 0.03 0.01
0.03 0.01 0.01 0.02 0.03 0.03 0.05 0.02 0.03 0.01 0.00 0.02 0.07 0.07 0.03 0.00 0.02 0.05 0.09 0.14 0.09 0.16 0.20 0.29 0.25 0.07 0.03
0.03 0.03 0.01 0.01 0.01 0.02 0.05 0.04 0.05 0.04 0.02 0.00 0.00 0.01 0.00 0.01 0.04 0.06 0.11 0.12 0.17 0.21 0.18 0.25 0.25 0.18 0.08
0.02 0.02 0.04 0.03 0.03 0.02 0.03 0.06 0.06 0.04 0.04 0.03 0.02 0.01 0.01 0.01 0.08 0.15 0.16 0.16 0.28 0.23 0.21 0.18 0.32 0.34 0.16
0.03 0.05 0.04 0.02 0.02 0.02 0.03 0.04 0.03 0.04 0.05 0.04 0.04 0.04 0.04 0.04 0.03 0.18 0.22 0.20 0.23 0.19 0.21 0.16 0.28 0.34 0.18

GFSFLT2_prec_precacc6_027.txt.gz
Total_Precipitation_Accumulation
0.00 0.00 0.00 0.00 0.00 0.00 0.00 0.00 0.01 0.01 0.01 0.01 0.01 0.01 0.00 0.01 0.01 0.01 0.01 0.01 0.02 0.03 0.04 0.04 0.05 0.06 0.07
0.00 0.00 0.00 0.00 0.00 0.00 0.01 0.02 0.01 0.00 0.00 0.00 0.00 0.00 0.00 0.00 0.00 0.01 0.02 0.03 0.03 0.04 0.04 0.04 0.04 0.04 0.06
0.00 0.00 0.00 0.00 0.01 0.01 0.00 0.00 0.00 0.00 0.00 0.00 0.00 0.00 0.00 0.01 0.02 0.03 0.03 0.04 0.03 0.03 0.02 0.02 0.02 0.04 0.04
0.03 0.02 0.01 0.03 0.02 0.00 0.00 0.00 0.00 0.00 0.00 0.00 0.00 0.00 0.00 0.00 0.00 0.00 0.00 0.00 0.00 0.01 0.01 0.02 0.01 0.02 0.02
0.05 0.11 0.07 0.00 0.00 0.00 0.00 0.01 0.02 0.01 0.00 0.00 0.00 0.00 0.00 0.00 0.00 0.00 0.00 0.00 0.01 0.03 0.05 0.06 0.07 0.07 0.06
0.17 0.03 0.00 0.00 0.00 0.02 0.08 0.06 0.01 0.00 0.00 0.00 0.00 0.00 0.00 0.00 0.00 0.00 0.01 0.01 0.01 0.02 0.04 0.05 0.06 0.06 0.06
0.00 0.00 0.00 0.02 0.09 0.08 0.02 0.01 0.01 0.00 0.01 0.01 0.00 0.00 0.00 0.00 0.00 0.00 0.00 0.01 0.01 0.02 0.03 0.04 0.04 0.03 0.03
0.00 0.01 0.02 0.03 0.01 0.01 0.02 0.03 0.01 0.00 0.00 0.02 0.00 0.00 0.00 0.00 0.00 0.00 0.00 0.01 0.02 0.03 0.04 0.06 0.06 0.05 0.03
0.02 0.01 0.00 0.00 0.00 0.08 0.07 0.04 0.02 0.00 0.00 0.02 0.01 0.00 0.00 0.00 0.00 0.00 0.00 0.00 0.01 0.02 0.03 0.05 0.06 0.07 0.08
0.00 0.00 0.00 0.00 0.00 0.02 0.09 0.14 0.05 0.03 0.00 0.06 0.03 0.01 0.08 0.00 0.00 0.00 0.00 0.00 0.00 0.02 0.05 0.04 0.04 0.03 0.03
0.00 0.00 0.00 0.00 0.00 0.01 0.04 0.15 0.17 0.09 0.00 0.12 0.12 0.02 0.06 0.02 0.00 0.00 0.00 0.00 0.04 0.11 0.20 0.18 0.15 0.12 0.09
0.00 0.00 0.00 0.00 0.00 0.01 0.02 0.04 0.08 0.16 0.07 0.09 0.17 0.08 0.10 0.04 0.00 0.00 0.00 0.02 0.18 0.26 0.34 0.27 0.23 0.16 0.10
0.00 0.00 0.00 0.00 0.01 0.01 0.00 0.00 0.01 0.03 0.04 0.05 0.11 0.09 0.08 0.06 0.03 0.00 0.03 0.03 0.08 0.24 0.36 0.43 0.45 0.19 0.03
0.02 0.00 0.00 0.00 0.01 0.02 0.03 0.01 0.03 0.00 0.00 0.01 0.07 0.10 0.06 0.02 0.05 0.05 0.04 0.16 0.10 0.19 0.28 0.29 0.23 0.13 0.03
0.01 0.01 0.01 0.00 0.01 0.01 0.04 0.04 0.05 0.04 0.02 0.00 0.00 0.02 0.02 0.03 0.04 0.04 0.11 0.14 0.21 0.21 0.16 0.24 0.18 0.08 0.04
0.01 0.01 0.02 0.02 0.02 0.01 0.02 0.05 0.06 0.03 0.04 0.02 0.02 0.01 0.01 0.01 0.07 0.16 0.16 0.17 0.27 0.24 0.20 0.20 0.18 0.15 0.06
0.01 0.04 0.05 0.02 0.01 0.01 0.01 0.02 0.03 0.03 0.03 0.03 0.04 0.04 0.04 0.03 0.02 0.17 0.27 0.23 0.21 0.17 0.17 0.16 0.20 0.22 0.06

GFSFLT2_prec_precacc6_030.txt.gz
Total_Precipitation_Accumulation
0.00 0.00 0.00 0.00 0.00 0.00 0.00 0.00 0.01 0.04 0.02 0.00 0.00 0.00 0.00 0.01 0.03 0.03 0.03 0.03 0.04 0.04 0.05 0.06 0.06 0.06 0.07
0.00 0.00 0.00 0.00 0.00 0.00 0.01 0.02 0.02 0.00 0.00 0.00 0.00 0.00 0.00 0.01 0.02 0.02 0.02 0.03 0.03 0.04 0.05 0.05 0.05 0.05 0.06
0.00 0.00 0.00 0.00 0.01 0.01 0.00 0.00 0.00 0.00 0.00 0.00 0.00 0.00 0.00 0.00 0.01 0.02 0.04 0.06 0.06 0.05 0.05 0.05 0.05 0.05 0.05
0.02 0.01 0.02 0.03 0.02 0.00 0.00 0.00 0.00 0.00 0.00 0.00 0.00 0.00 0.00 0.00 0.00 0.00 0.00 0.00 0.00 0.00 0.00 0.01 0.01 0.01 0.01
0.06 0.09 0.05 0.00 0.00 0.00 0.00 0.00 0.01 0.00 0.00 0.00 0.00 0.00 0.00 0.00 0.00 0.00 0.00 0.00 0.00 0.01 0.02 0.03 0.05 0.05 0.04
0.09 0.01 0.00 0.00 0.00 0.02 0.05 0.03 0.01 0.00 0.00 0.01 0.00 0.00 0.00 0.00 0.00 0.00 0.00 0.00 0.01 0.02 0.04 0.05 0.05 0.06 0.06
0.00 0.00 0.00 0.02 0.08 0.05 0.01 0.01 0.01 0.00 0.01 0.02 0.00 0.00 0.00 0.00 0.00 0.00 0.00 0.01 0.01 0.01 0.02 0.03 0.04 0.03 0.03
0.00 0.00 0.02 0.02 0.00 0.01 0.02 0.03 0.01 0.00 0.00 0.04 0.00 0.00 0.00 0.00 0.00 0.00 0.00 0.00 0.01 0.01 0.02 0.03 0.04 0.04 0.04
0.02 0.01 0.00 0.00 0.00 0.08 0.05 0.04 0.02 0.00 0.00 0.01 0.00 0.00 0.00 0.00 0.00 0.00 0.00 0.00 0.00 0.00 0.01 0.01 0.02 0.05 0.07
0.00 0.00 0.00 0.00 0.00 0.02 0.07 0.12 0.04 0.03 0.00 0.05 0.02 0.02 0.08 0.00 0.00 0.00 0.00 0.00 0.00 0.01 0.03 0.04 0.04 0.05 0.07
0.00 0.00 0.00 0.00 0.00 0.00 0.02 0.12 0.16 0.09 0.00 0.12 0.11 0.01 0.06 0.02 0.00 0.00 0.00 0.00 0.01 0.04 0.13 0.16 0.18 0.18 0.18
0.00 0.00 0.00 0.00 0.00 0.00 0.01 0.02 0.07 0.16 0.06 0.08 0.16 0.07 0.10 0.04 0.00 0.00 0.00 0.00 0.04 0.10 0.14 0.11 0.17 0.20 0.21
0.00 0.00 0.00 0.00 0.00 0.00 0.00 0.00 0.00 0.02 0.03 0.02 0.09 0.07 0.09 0.10 0.05 0.01 0.06 0.02 0.01 0.11 0.17 0.26 0.42 0.33 0.15
0.01 0.00 0.00 0.00 0.00 0.00 0.01 0.00 0.02 0.00 0.00 0.00 0.05 0.10 0.09 0.04 0.12 0.08 0.04 0.15 0.11 0.15 0.20 0.25 0.27 0.19 0.03
0.00 0.01 0.00 0.00 0.00 0.00 0.01 0.02 0.02 0.02 0.01 0.00 0.00 0.02 0.04 0.06 0.04 0.04 0.10 0.13 0.19 0.16 0.13 0.22 0.18 0.09 0.03
0.00 0.00 0.01 0.01 0.01 0.00 0.00 0.02 0.04 0.02 0.03 0.01 0.01 0.00 0.00 0.00 0.05 0.15 0.14 0.18 0.20 0.16 0.12 0.17 0.10 0.06 0.02
0.01 0.02 0.04 0.02 0.01 0.01 0.00 0.01 0.01 0.01 0.02 0.02 0.02 0.02 0.02 0.02 0.01 0.10 0.22 0.19 0.15 0.13 0.10 0.14 0.15 0.12 0.02

GFSFLT2_prec_precacc6_033.txt.gz
Total_Precipitation_Accumulation
0.00 0.00 0.00 0.00 0.00 0.00 0.00 0.00 0.01 0.03 0.01 0.01 0.00 0.00 0.00 0.00 0.02 0.03 0.04 0.05 0.07 0.08 0.09 0.10 0.09 0.09 0.09
0.00 0.00 0.00 0.00 0.00 0.00 0.00 0.01 0.01 0.00 0.00 0.00 0.00 0.00 0.00 0.01 0.02 0.03 0.03 0.04 0.04 0.04 0.05 0.05 0.05 0.04 0.05
0.00 0.00 0.00 0.00 0.00 0.00 0.00 0.00 0.00 0.00 0.00 0.00 0.00 0.00 0.00 0.01 0.01 0.01 0.02 0.04 0.04 0.04 0.05 0.06 0.07 0.07 0.07
0.02 0.03 0.03 0.01 0.00 0.00 0.00 0.00 0.00 0.00 0.00 0.00 0.00 0.00 0.00 0.00 0.00 0.00 0.00 0.00 0.00 0.00 0.00 0.01 0.02 0.01 0.01
0.09 0.04 0.01 0.00 0.00 0.00 0.00 0.00 0.00 0.00 0.00 0.00 0.00 0.00 0.00 0.00 0.00 0.00 0.00 0.00 0.01 0.01 0.01 0.02 0.03 0.04 0.02
0.01 0.00 0.00 0.00 0.00 0.01 0.03 0.02 0.01 0.00 0.00 0.00 0.00 0.00 0.00 0.00 0.00 0.00 0.00 0.00 0.00 0.01 0.02 0.03 0.04 0.04 0.05
0.00 0.00 0.00 0.01 0.07 0.04 0.01 0.01 0.01 0.00 0.01 0.02 0.00 0.00 0.00 0.00 0.00 0.00 0.00 0.00 0.01 0.01 0.02 0.02 0.03 0.03 0.02
0.00 0.00 0.02 0.03 0.01 0.01 0.02 0.03 0.01 0.00 0.00 0.03 0.00 0.00 0.00 0.00 0.00 0.00 0.00 0.00 0.00 0.01 0.01 0.02 0.02 0.03 0.04
0.01 0.01 0.00 0.00 0.00 0.04 0.03 0.04 0.02 0.00 0.00 0.01 0.00 0.00 0.00 0.00 0.00 0.00 0.00 0.00 0.00 0.00 0.01 0.01 0.02 0.02 0.02
0.00 0.00 0.00 0.00 0.00 0.01 0.04 0.10 0.04 0.03 0.00 0.05 0.02 0.02 0.07 0.00 0.00 0.00 0.00 0.00 0.00 0.00 0.01 0.03 0.04 0.06 0.08
0.00 0.00 0.00 0.00 0.00 0.00 0.01 0.11 0.15 0.09 0.00 0.12 0.09 0.01 0.06 0.01 0.00 0.00 0.00 0.00 0.01 0.00 0.04 0.08 0.12 0.16 0.21
0.00 0.00 0.00 0.00 0.00 0.00 0.00 0.01 0.05 0.14 0.05 0.07 0.14 0.06 0.09 0.03 0.00 0.00 0.00 0.00 0.01 0.01 0.02 0.02 0.04 0.10 0.19
0.00 0.00 0.00 0.00 0.00 0.00 0.00 0.00 0.00 0.01 0.01 0.01 0.07 0.06 0.09 0.11 0.08 0.01 0.07 0.03 0.00 0.03 0.07 0.11 0.18 0.24 0.20
0.01 0.00 0.00 0.00 0.00 0.00 0.01 0.00 0.01 0.00 0.00 0.00 0.04 0.10 0.10 0.05 0.14 0.08 0.04 0.11 0.11 0.11 0.10 0.14 0.18 0.15 0.08
0.01 0.01 0.00 0.00 0.00 0.00 0.01 0.01 0.01 0.00 0.00 0.00 0.00 0.01 0.03 0.03 0.02 0.02 0.06 0.08 0.12 0.12 0.11 0.16 0.11 0.07 0.01
0.00 0.01 0.01 0.01 0.01 0.00 0.00 0.01 0.02 0.00 0.01 0.00 0.00 0.00 0.00 0.00 0.02 0.10 0.07 0.10 0.10 0.09 0.09 0.13 0.06 0.03 0.00
0.01 0.01 0.03 0.02 0.01 0.01 0.01 0.01 0.00 0.00 0.01 0.00 0.01 0.02 0.01 0.00 0.00 0.04 0.14 0.10 0.07 0.10 0.09 0.12 0.10 0.03 0.00

GFSFLT2_prec_precacc6_036.txt.gz
Total_Precipitation_Accumulation
0.00 0.00 0.00 0.00 0.00 0.00 0.00 0.00 0.00 0.00 0.00 0.00 0.00 0.00 0.00 0.00 0.01 0.01 0.02 0.04 0.06 0.07 0.09 0.10 0.11 0.12 0.12
0.00 0.00 0.00 0.00 0.00 0.00 0.00 0.00 0.00 0.00 0.00 0.00 0.00 0.00 0.00 0.00 0.01 0.02 0.02 0.03 0.05 0.06 0.06 0.07 0.06 0.06 0.06
0.00 0.00 0.00 0.00 0.00 0.00 0.00 0.00 0.00 0.00 0.00 0.00 0.00 0.00 0.00 0.00 0.00 0.01 0.01 0.01 0.01 0.02 0.02 0.03 0.05 0.05 0.05
0.02 0.04 0.02 0.00 0.00 0.00 0.00 0.00 0.00 0.00 0.00 0.00 0.00 0.00 0.00 0.00 0.00 0.00 0.00 0.00 0.00 0.00 0.01 0.01 0.01 0.01 0.01
0.08 0.02 0.00 0.00 0.00 0.00 0.00 0.00 0.00 0.00 0.00 0.00 0.00 0.00 0.00 0.00 0.00 0.00 0.00 0.00 0.01 0.01 0.01 0.02 0.03 0.03 0.02
0.02 0.00 0.00 0.00 0.00 0.01 0.02 0.02 0.01 0.00 0.00 0.00 0.00 0.00 0.00 0.00 0.00 0.00 0.00 0.00 0.01 0.01 0.01 0.02 0.03 0.04 0.04
0.00 0.00 0.00 0.01 0.05 0.04 0.01 0.01 0.01 0.00 0.00 0.00 0.00 0.00 0.00 0.00 0.00 0.00 0.00 0.00 0.00 0.01 0.01 0.02 0.03 0.03 0.03
0.00 0.00 0.01 0.03 0.02 0.01 0.01 0.02 0.01 0.00 0.00 0.01 0.00 0.00 0.00 0.00 0.00 0.00 0.00 0.00 0.00 0.01 0.01 0.02 0.02 0.03 0.03
0.01 0.01 0.00 0.00 0.00 0.02 0.02 0.03 0.01 0.00 0.00 0.00 0.00 0.00 0.00 0.00 0.00 0.00 0.00 0.00 0.00 0.01 0.02 0.02 0.03 0.03 0.04
0.00 0.00 0.00 0.00 0.00 0.00 0.02 0.08 0.02 0.03 0.00 0.03 0.01 0.01 0.05 0.00 0.00 0.00 0.00 0.00 0.00 0.00 0.01 0.03 0.03 0.07 0.09
0.00 0.00 0.00 0.00 0.00 0.00 0.01 0.09 0.11 0.06 0.00 0.10 0.07 0.01 0.05 0.01 0.00 0.00 0.00 0.00 0.01 0.00 0.00 0.02 0.05 0.10 0.17
0.00 0.00 0.00 0.00 0.00 0.00 0.00 0.00 0.03 0.09 0.03 0.06 0.13 0.05 0.09 0.03 0.00 0.00 0.00 0.00 0.01 0.01 0.01 0.01 0.01 0.04 0.09
0.00 0.00 0.00 0.00 0.00 0.00 0.00 0.00 0.00 0.00 0.00 0.01 0.07 0.05 0.07 0.09 0.07 0.01 0.03 0.02 0.00 0.01 0.04 0.05 0.09 0.10 0.14
0.01 0.00 0.00 0.00 0.00 0.00 0.01 0.00 0.01 0.00 0.00 0.00 0.02 0.09 0.09 0.03 0.07 0.03 0.01 0.07 0.07 0.07 0.06 0.08 0.10 0.10 0.10
0.01 0.01 0.00 0.00 0.00 0.00 0.01 0.01 0.01 0.00 0.00 0.00 0.00 0.01 0.02 0.01 0.00 0.00 0.01 0.03 0.06 0.09 0.11 0.10 0.03 0.03 0.01
0.01 0.01 0.01 0.01 0.01 0.00 0.00 0.01 0.02 0.00 0.00 0.00 0.00 0.00 0.00 0.00 0.00 0.02 0.02 0.02 0.03 0.06 0.09 0.10 0.04 0.01 0.00
0.01 0.01 0.02 0.02 0.01 0.01 0.01 0.01 0.00 0.00 0.00 0.00 0.01 0.02 0.02 0.00 0.00 0.01 0.08 0.03 0.02 0.06 0.09 0.10 0.09 0.03 0.02